KT4LH-10 Weather Reports


Display with metric or nautical units.
time (UTC)temp
F
wind
direction
speed
MPH
gust
MPH
rain 1hr
in
rain 24hr
in
rain mn
in
humidity
%
barometer
mb
20260503185139 59 0 0.0 0.0 0.00 0.00 0.00 30 1015.3
20260503184639 59 0 0.0 0.0 0.00 0.00 0.00 30 1015.3
20260503184139 59 0 0.0 0.0 0.00 0.00 0.00 32 1015.3
20260503183639 59 0 0.0 0.0 0.00 0.00 0.00 31 1015.3
20260503183138 58 0 0.0 0.0 0.00 0.00 0.00 31 1015.3
20260503182638 58 0 0.0 0.0 0.00 0.00 0.00 31 1015.3
20260503182139 58 0 0.0 0.0 0.00 0.00 0.00 31 1015.3
20260503181638 58 0 0.0 0.0 0.00 0.00 0.00 32 1015.3
20260503181138 58 0 0.0 0.0 0.00 0.00 0.00 32 1015.3
20260503180638 58 0 0.0 0.0 0.00 0.00 0.00 33 1015.3
20260503180138 58 0 0.0 0.0 0.00 0.00 0.00 33 1015.3
20260503175638 58 0 0.0 0.0 0.00 0.00 0.00 33 1015.3
20260503175138 58 0 0.0 0.0 0.00 0.00 0.00 33 1015.3
20260503174638 58 0 0.0 0.0 0.00 0.00 0.00 32 1015.3
20260503174138 57 0 0.0 0.0 0.00 0.00 0.00 33 1015.3
20260503173638 57 0 0.0 0.0 0.00 0.00 0.00 32 1015.3
20260503173138 57 0 0.0 0.0 0.00 0.00 0.00 31 1015.3
20260503172638 57 0 0.0 0.0 0.00 0.00 0.00 33 1015.3
20260503172138 57 0 0.0 0.0 0.00 0.00 0.00 32 1015.3
20260503171638 57 0 0.0 0.0 0.00 0.00 0.00 33 1015.3
20260503171138 57 0 0.0 0.0 0.00 0.00 0.00 33 1015.3
20260503170638 57 0 0.0 0.0 0.00 0.00 0.00 34 1015.3
20260503170138 56 0 0.0 0.0 0.00 0.00 0.00 33 1015.3
20260503160139 56 0 0.0 0.0 0.00 0.00 0.00 36 1015.3
20260503150638 55 0 0.0 0.0 0.00 0.00 0.00 36 1015.3
20260503150138 55 0 0.0 0.0 0.00 0.00 0.00 36 1015.3
20260503140138 54 0 0.0 0.0 0.00 0.00 0.00 41 1015.3
20260503131139 52 0 0.0 0.0 0.00 0.00 0.00 47 1015.3
20260503130639 51 0 0.0 0.0 0.00 0.00 0.00 47 1015.3
20260503130139 51 0 0.0 0.0 0.00 0.00 0.00 49 1015.3
20260503120138 47 0 0.0 0.0 0.00 0.00 0.00 58 1015.3
20260503110638 39 0 0.0 0.0 0.00 0.00 0.00 64 1015.3
20260503110138 39 0 0.0 0.0 0.00 0.00 0.00 64 1015.3
20260503100139 38 0 0.0 0.0 0.00 0.00 0.00 66 1015.3
20260503090138 37 0 0.0 0.0 0.00 0.00 0.00 66 1015.3
20260503081138 37 0 0.0 0.0 0.00 0.00 0.00 64 1015.3
20260503080638 37 0 0.0 0.0 0.00 0.00 0.00 64 1015.3
20260503080138 37 0 0.0 0.0 0.00 0.00 0.00 64 1015.3
20260503072639 38 0 0.0 0.0 0.00 0.00 0.00 62 1015.3
20260503072139 38 0 0.0 0.0 0.00 0.00 0.00 62 1015.3
20260503071639 38 0 0.0 0.0 0.00 0.00 0.00 61 1015.3
20260503071139 38 0 0.0 0.0 0.00 0.00 0.00 61 1015.3
20260503070639 38 0 0.0 0.0 0.00 0.00 0.00 61 1015.3
20260503070139 38 0 0.0 0.0 0.00 0.00 0.00 61 1015.3
20260503060138 40 0 0.0 0.0 0.00 0.00 0.00 57 1015.3
20260503054638 41 0 0.0 0.0 0.00 0.00 0.00 56 1015.3
20260503054138 41 0 0.0 0.0 0.00 0.00 0.00 56 1015.3
20260503053638 41 0 0.0 0.0 0.00 0.00 0.00 55 1015.3
20260503053138 41 0 0.0 0.0 0.00 0.00 0.00 55 1015.3
20260503052638 42 0 0.0 0.0 0.00 0.00 0.00 54 1015.3
20260503052138 42 0 0.0 0.0 0.00 0.00 0.00 54 1015.3
20260503051638 42 0 0.0 0.0 0.00 0.00 0.00 54 1015.3
20260503051138 43 0 0.0 0.0 0.00 0.00 0.00 53 1015.3
20260503050638 43 0 0.0 0.0 0.00 0.00 0.00 53 1015.3
20260503050138 43 0 0.0 0.0 0.00 0.00 0.00 52 1015.3
20260503045638 43 0 0.0 0.0 0.00 0.00 0.00 52 1015.3
20260503045138 44 0 0.0 0.0 0.00 0.00 0.00 52 1015.3
20260503044638 44 0 0.0 0.0 0.00 0.00 0.00 51 1015.3
20260503044138 44 0 0.0 0.0 0.00 0.00 0.00 51 1015.3
20260503043639 44 0 0.0 0.0 0.00 0.00 0.00 51 1015.3
20260503043139 44 0 0.0 0.0 0.00 0.00 0.00 51 1015.3
20260503042639 44 0 0.0 0.0 0.00 0.00 0.00 51 1015.3
20260503042139 44 0 0.0 0.0 0.00 0.00 0.00 51 1015.3
20260503041639 44 0 0.0 0.0 0.00 0.00 0.00 51 1015.3
20260503041139 45 0 0.0 0.0 0.00 0.00 0.00 51 1015.3
20260503040639 45 0 0.0 0.0 0.00 0.00 0.00 52 1015.3
20260503040138 45 0 0.0 0.0 0.00 0.00 0.00 51 1015.3
20260503035640 45 0 0.0 0.0 0.00 0.00 0.00 51 1015.3
20260503035140 45 0 0.0 0.0 0.00 0.00 0.00 52 1015.3
20260503034640 45 0 0.0 0.0 0.00 0.00 0.00 52 1015.3
20260503034140 46 0 0.0 0.0 0.00 0.00 0.00 52 1015.3
20260503033640 46 0 0.0 0.0 0.00 0.00 0.00 53 1015.3
20260503033140 46 0 0.0 0.0 0.00 0.00 0.00 53 1015.3
20260503032640 46 0 0.0 0.0 0.00 0.00 0.00 53 1015.3
20260503032140 46 0 0.0 0.0 0.00 0.00 0.00 54 1015.3
20260503031640 46 0 0.0 0.0 0.00 0.00 0.00 54 1015.3
20260503031140 46 0 0.0 0.0 0.00 0.00 0.00 54 1015.3
20260503030640 46 0 0.0 0.0 0.00 0.00 0.00 54 1015.3
20260503030140 46 0 0.0 0.0 0.00 0.00 0.00 54 1015.3
20260503025640 46 0 0.0 0.0 0.00 0.00 0.00 54 1015.3
20260503025140 46 0 0.0 0.0 0.00 0.00 0.00 54 1015.3
20260503024640 46 0 0.0 0.0 0.00 0.00 0.00 54 1015.3
20260503024140 46 0 0.0 0.0 0.00 0.00 0.00 54 1015.3
20260503023640 46 0 0.0 0.0 0.00 0.00 0.00 53 1015.3
20260503023140 46 0 0.0 0.0 0.00 0.00 0.00 53 1015.3
20260503022640 47 0 0.0 0.0 0.00 0.00 0.00 53 1015.3
20260503022141 47 0 0.0 0.0 0.00 0.00 0.00 52 1015.3
20260503021641 47 0 0.0 0.0 0.00 0.00 0.00 52 1015.3
20260503021141 48 0 0.0 0.0 0.00 0.00 0.00 52 1015.3
20260503020641 48 0 0.0 0.0 0.00 0.00 0.00 52 1015.3
20260503020141 48 0 0.0 0.0 0.00 0.00 0.00 52 1015.3
20260503015641 48 0 0.0 0.0 0.00 0.00 0.00 52 1015.3
20260503015141 48 0 0.0 0.0 0.00 0.00 0.00 51 1015.3
20260503014640 48 0 0.0 0.0 0.00 0.00 0.00 51 1015.3
20260503014141 48 0 0.0 0.0 0.00 0.00 0.00 51 1015.3
20260503013640 48 0 0.0 0.0 0.00 0.00 0.00 50 1015.3
20260503013140 48 0 0.0 0.0 0.00 0.00 0.00 50 1015.3
20260503012640 49 0 0.0 0.0 0.00 0.00 0.00 49 1015.3
20260503012140 49 0 0.0 0.0 0.00 0.00 0.00 49 1015.3
20260503011640 49 0 0.0 0.0 0.00 0.00 0.00 49 1015.3
20260503011140 49 0 0.0 0.0 0.00 0.00 0.00 49 1015.3
20260503010640 49 0 0.0 0.0 0.00 0.00 0.00 48 1015.3
20260503010140 49 0 0.0 0.0 0.00 0.00 0.00 48 1015.3
20260503005640 49 0 0.0 0.0 0.00 0.00 0.00 48 1015.3
20260503005140 50 0 0.0 0.0 0.00 0.00 0.00 48 1015.3
20260503004640 50 0 0.0 0.0 0.00 0.00 0.00 47 1015.3
20260503004140 50 0 0.0 0.0 0.00 0.00 0.00 47 1015.3
20260503003638 50 0 0.0 0.0 0.00 0.00 0.00 47 1015.3
20260503003138 50 0 0.0 0.0 0.00 0.00 0.00 46 1015.3
20260503002638 51 0 0.0 0.0 0.00 0.00 0.00 46 1015.3
20260503002138 51 0 0.0 0.0 0.00 0.00 0.00 46 1015.3
20260503001638 51 0 0.0 0.0 0.00 0.00 0.00 45 1015.3
20260503001138 51 0 0.0 0.0 0.00 0.00 0.00 45 1015.3
20260503000638 51 0 0.0 0.0 0.00 0.00 0.00 45 1015.3
20260503000138 52 0 0.0 0.0 0.00 0.00 0.00 44 1015.3
20260502235638 52 0 0.0 0.0 0.00 0.00 0.00 44 1015.3
20260502235138 52 0 0.0 0.0 0.00 0.00 0.00 43 1015.3
20260502234638 53 0 0.0 0.0 0.00 0.00 0.00 43 1015.3
20260502234138 53 0 0.0 0.0 0.00 0.00 0.00 43 1015.3
20260502233638 53 0 0.0 0.0 0.00 0.00 0.00 42 1015.3
20260502233138 54 0 0.0 0.0 0.00 0.00 0.00 43 1015.3
20260502232638 54 0 0.0 0.0 0.00 0.00 0.00 42 1015.3
20260502232138 54 0 0.0 0.0 0.00 0.00 0.00 42 1015.3
20260502231638 54 0 0.0 0.0 0.00 0.00 0.00 42 1015.3
20260502231138 54 0 0.0 0.0 0.00 0.00 0.00 42 1015.3
20260502230639 54 0 0.0 0.0 0.00 0.00 0.00 42 1015.3
20260502230139 54 0 0.0 0.0 0.00 0.00 0.00 42 1015.3
20260502225638 54 0 0.0 0.0 0.00 0.00 0.00 42 1015.3
20260502225138 54 0 0.0 0.0 0.00 0.00 0.00 42 1015.3
20260502224638 54 0 0.0 0.0 0.00 0.00 0.00 43 1015.3
20260502224138 54 0 0.0 0.0 0.00 0.00 0.00 43 1015.3
20260502223638 54 0 0.0 0.0 0.00 0.00 0.00 44 1015.3
20260502223138 54 0 0.0 0.0 0.00 0.00 0.00 43 1015.3
20260502222638 53 0 0.0 0.0 0.00 0.00 0.00 43 1015.3
20260502222138 54 0 0.0 0.0 0.00 0.00 0.00 43 1015.3
20260502221638 54 0 0.0 0.0 0.00 0.00 0.00 43 1015.3
20260502221138 54 0 0.0 0.0 0.00 0.00 0.00 42 1015.3
20260502220638 54 0 0.0 0.0 0.00 0.00 0.00 42 1015.3
20260502220138 54 0 0.0 0.0 0.00 0.00 0.00 42 1015.3
20260502215638 54 0 0.0 0.0 0.00 0.00 0.00 42 1015.3
20260502215138 54 0 0.0 0.0 0.00 0.00 0.00 42 1015.3
20260502214638 54 0 0.0 0.0 0.00 0.00 0.00 42 1015.3
20260502214138 54 0 0.0 0.0 0.00 0.00 0.00 42 1015.3
20260502213638 54 0 0.0 0.0 0.00 0.00 0.00 43 1015.3
20260502213138 53 0 0.0 0.0 0.00 0.00 0.00 43 1015.3
20260502212638 53 0 0.0 0.0 0.00 0.00 0.00 43 1015.3
20260502212138 53 0 0.0 0.0 0.00 0.00 0.00 43 1015.3
20260502211638 53 0 0.0 0.0 0.00 0.00 0.00 43 1015.3
20260502211139 52 0 0.0 0.0 0.00 0.00 0.00 43 1015.3
20260502210639 53 0 0.0 0.0 0.00 0.00 0.00 43 1015.3
20260502210139 53 0 0.0 0.0 0.00 0.00 0.00 43 1015.3
20260502205639 54 0 0.0 0.0 0.00 0.00 0.00 43 1015.3
20260502205139 54 0 0.0 0.0 0.00 0.00 0.00 43 1015.3
20260502204639 54 0 0.0 0.0 0.00 0.00 0.00 43 1015.3
20260502204139 54 0 0.0 0.0 0.00 0.00 0.00 43 1015.3
20260502203638 55 0 0.0 0.0 0.00 0.00 0.00 43 1015.3
20260502203138 55 0 0.0 0.0 0.00 0.00 0.00 43 1015.3
20260502202638 54 0 0.0 0.0 0.00 0.00 0.00 43 1015.3
20260502202138 54 0 0.0 0.0 0.00 0.00 0.00 43 1015.3
20260502201638 54 0 0.0 0.0 0.00 0.00 0.00 42 1015.3
20260502201138 55 0 0.0 0.0 0.00 0.00 0.00 43 1015.3
20260502200638 55 0 0.0 0.0 0.00 0.00 0.00 42 1015.3
20260502200209 55 0 0.0 0.0 0.00 0.00 0.00 42 1015.3
20260502200138 55 0 0.0 0.0 0.00 0.00 0.00 42 1015.3
20260502195638 55 0 0.0 0.0 0.00 0.00 0.00 42 1015.3
20260502195138 55 0 0.0 0.0 0.00 0.00 0.00 42 1015.3
20260502194638 55 0 0.0 0.0 0.00 0.00 0.00 41 1015.3
20260502194138 55 0 0.0 0.0 0.00 0.00 0.00 41 1015.3
20260502193638 55 0 0.0 0.0 0.00 0.00 0.00 41 1015.3
20260502193138 55 0 0.0 0.0 0.00 0.00 0.00 41 1015.3
20260502192638 55 0 0.0 0.0 0.00 0.00 0.00 41 1015.3
20260502192138 55 0 0.0 0.0 0.00 0.00 0.00 41 1015.3
20260502191638 56 0 0.0 0.0 0.00 0.00 0.00 41 1015.3
20260502191138 56 0 0.0 0.0 0.00 0.00 0.00 42 1015.3
20260502190638 55 0 0.0 0.0 0.00 0.00 0.00 41 1015.3
20260502190138 54 0 0.0 0.0 0.00 0.00 0.00 41 1015.3
20260502185638 54 0 0.0 0.0 0.00 0.00 0.00 41 1015.3